Regional Weather Roundup
Issued by NWS Mt. Holly, NJ

Home | Current Version | Previous Version | Text Only | Print | Product List | Glossary On
Versions: 1 2 3 4 5 6 7 8 9 10 11 12 13 14 15 16 17 18 19 20 21 22 23 24 25 26 27 28 29 30 31 32 33 34 35 36 37 38 39 40 41 42 43 44 45 46 47 48
000
ASUS41 KPHI 301210
RWRPHI

REGIONAL WEATHER ROUNDUP
NATIONAL WEATHER SERVICE MOUNT HOLLY NJ
700 AM EST FRI JAN 30 2015

NOTE:  "FAIR" INDICATES FEW OR NO CLOUDS BELOW 12,000 FEET WITH NO
SIGNIFICANT WEATHER AND/OR OBSTRUCTIONS TO VISIBILITY.

 * = STATION DOES NOT REPORT PRECIPITATION (E.G. RAIN, SNOW, ETC.)
        OR FOG.

NJZ015>026-301300-
SOUTHERN NEW JERSEY

CITY           SKY/WX    TMP DP  RH WIND       PRES   REMARKS
POMONA         FLURRIES  34  28  79 NW8       29.88R WCI  27
6HR MIN TEMP:  34; 6HR MAX TEMP:  38; 6HR PCP: TRACE;

RIO GRANDE*    CLOUDY    37  27  65 NW10      29.88S WCI  30
MILLVILLE      CLOUDY    36  26  67 NW14G20   29.89R WCI  27
WRIGHTSTOWN    FLURRIES  32  25  74 NW7       29.85R WCI  26
MOUNT HOLLY    CLOUDY    33  25  72 NW9       29.88R WCI  25
TRENTON        LGT SNOW  30  24  78 NW8       29.85S WCI  22
6HR MIN TEMP:  30; 6HR MAX TEMP:  32; 6HR PCP: TRACE;


$$
NJZ001>014-301300-
NORTHERN NEW JERSEY

CITY           SKY/WX    TMP DP  RH WIND       PRES   REMARKS
SUSSEX         LGT SNOW  26  24  92 CALM      29.84S FOG
ANDOVER*         N/A     26  24  92 CALM      29.84S
MORRISTOWN     FLURRIES  28  27  93 CALM      29.85S
NEWARK         CLOUDY    32  27  81 W7        29.85S WCI  26
TETERBORO      FLURRIES  31  28  89 NW5       29.84F WCI  26
CALDWELL       CLOUDY    29  27  92 CALM      29.85S FOG
SOMERVILLE     CLOUDY    30  25  81 CALM      29.84S
ALLAIRE*       CLOUDY    34  21  60 W10       29.85S WCI  26
TOMS RIVER*    CLOUDY    34  27  75 W8        29.87R WCI  27

$$
PAZ043-044-047-054-055-060>062-066>071-301300-
EASTERN PENNSYLVANIA

CITY           SKY/WX    TMP DP  RH WIND       PRES   REMARKS
PHILADELPHIA   FLURRIES  35  25  66 NW13      29.90R WCI  26
6HR MIN TEMP:  34; 6HR MAX TEMP:  36; 6HR PCP: TRACE;

NORTH PHILA    CLOUDY    34  24  67 NW12G21   29.89R WCI  25
BLUE BELL      CLOUDY    32  28  86 W7        29.87R WCI  26
DOYLESTOWN     CLOUDY    29  25  85 W8        29.86R WCI  21
QUAKERTOWN*    CLOUDY    30  25  80 W7        29.87R WCI  23
POTTSTOWN      CLOUDY    30  25  81 W7        29.90R WCI  23
LANCASTER      LGT SNOW  30  26  85 W12       29.91R VSB 1   WCI  20
COATESVILLE    CLOUDY    30  28  93 NW15      29.89R WCI  19
READING        CLOUDY    29  24  82 W3        29.90R
6HR MIN TEMP:  28; 6HR MAX TEMP:  30; 6HR PCP: TRACE;

ALLENTOWN      CLOUDY    28  24  85 W8        29.87S WCI  20
6HR MIN TEMP:  27; 6HR MAX TEMP:  29; 6HR PCP: TRACE;

MOUNT POCONO   LGT SNOW  25  22  88 NW13      29.75S FOG     WCI  14
6HR MIN TEMP:  23; 6HR MAX TEMP:  25; 6HR PCP:  0.01;

HAZLETON       LGT SNOW  27  25  93 W8        29.85R WCI  18
WILKES BARRE   LGT SNOW  27  24  89 S6        29.84S VSB 1   WCI  20

$$
DEZALL-MDZ008-012-015-019-020-301300-
DELAWARE AND EASTERN MARYLAND

CITY           SKY/WX    TMP DP  RH WIND       PRES   REMARKS
WILMINGTON     CLOUDY    35  25  66 NW18G24   29.91R WCI  24
6HR MIN TEMP:  32; 6HR MAX TEMP:  36;

DOVER          CLOUDY    37  28  70 NW14      29.91R WCI  29
GEORGETOWN     CLOUDY    39  27  62 VRB5      29.92R
6HR MIN TEMP:  38; 6HR MAX TEMP:  40; 6HR PCP: TRACE;

EASTON         CLOUDY    39  30  70 NW10      29.97R WCI  32
PATUXENT       MOCLDY    39  28  64 NW14      29.94R WCI  31
OCEAN CITY     CLOUDY    36  32  85 NW7       29.91R WCI  30
WALLOPS ISLAND LGT RAIN  36  33  89 NW6       29.93S WCI  31
CAMBRIDGE      CLOUDY    41  30  65 NW9G16    29.93R
SALISBURY      CLOUDY    41  30  65 W8        29.92R

$$
PAZ001-021-NYZ056-072-MDZ011-DCZ001-301300-
OTHER NEARBY LOCATIONS

CITY           SKY/WX    TMP DP  RH WIND       PRES   REMARKS
HARRISBURG     FLURRIES  32  27  81 MISG      29.93R
STATE COLLEGE  CLOUDY    30  25  80 NW14      29.94R WCI  20
WILLIAMSPORT   CLOUDY    30  25  81 W8        29.90R WCI  22
BINGHAMTON     FLURRIES  26  23  88 NW8       29.79R WCI  18
NEW YORK CITY  CLOUDY    33  26  75 W7        29.85F WCI  27
BALTIMORE      PTCLDY    34  26  72 W7        29.95R WCI  28
WASHINGTON DC  PTCLDY    40  23  50 NW15G28   29.99R WCI  32

$$


USA.gov is the U.S. government's official web portal to all federal, state and local government web resources and services.